Regional Weather Roundup
Issued by NWS

Home | Current Version | Previous Version | Graphics & Text | Print | Product List | Glossary On
Versions: 1 2 3 4 5 6 7 8 9 10 11 12 13 14 15 16 17 18 19 20 21 22 23 24 25 26 27 28 29 30 31 32 33 34 35 36 37 38 39 40 41 42 43 44 45 46 47 48 49 50
000
ASUS43 KIND 071309
RWRIN

WEATHER ROUNDUP FOR INDIANA
NATIONAL WEATHER SERVICE INDIANAPOLIS IN
800 AM EST SUN FEB 07 2016

NOTE: "FAIR" INDICATES FEW OR NO CLOUDS BELOW 12,000 FEET WITH NO
SIGNIFICANT WEATHER AND/OR OBSTRUCTIONS TO VISIBILITY.

* - STATION DOES NOT REPORT WEATHER SUCH AS PRECIPITATION OR FOG.

+ - STATION NOT QUALITY CONTROLLED BY THE NATIONAL WEATHER SERVICE.
    USE DATA WITH CAUTION...ESPECIALLY DEWPOINT AND RELATIVE
    HUMIDITY OBSERVATIONS.

INZ001>003-010>013-019-020-071400-
NORTHWEST INDIANA

CITY           SKY/WX    TMP DP  RH WIND       PRES   REMARKS
GARY /AIRPORT/ MOCLDY    39  28  65 S9G21     29.90F
LA PORTE +     PTCLDY    36  32  85 S7        29.92F
MICHIGAN CITY+ PTCLDY    36  30  80 S9G17     29.92F
MONTICELLO +   CLOUDY    34  24  64 SW7       29.97S WCI  28
RENSSELAER +   PTCLDY    34  28  80 S9        29.95F WCI  26
VALPARAISO     MOCLDY    36  29  75 S12       29.92F

$$

LMZ046-743>745-071400-
SOUTHERN LAKE MICHIGAN

STATION/POSITION TIME  TEMP    WIND        PRES    WAVE
                       AIR SEA DIR/SP/G            HT
                 (UTC) (F)     (DEG/KT/KT) (MB)    (FT)
BURNS HARBOR     1200   39     190/ 15/ 18 1013.5F
MICHIGAN CITY    1200   37     160/ 14/ 17   N/A

$$

INZ004-005-014>016-021>024-071400-
NORTH CENTRAL INDIANA

CITY           SKY/WX    TMP DP  RH WIND       PRES   REMARKS
ELKHART          N/A     36  27  69 S8        29.93
GOSHEN         PTCLDY    35  26  69 S12       29.94F WCI  27
LOGANSPORT +   CLOUDY    32  27  80 S9        29.97F WCI  24
PERU/GRISSOM   PTCLDY    35  27  74 SW10      29.96F WCI  27
ROCHESTER +    CLOUDY    37  25  60 SW7       29.96F
SOUTH BEND     CLOUDY    34  27  75 SW10      29.93F WCI  26
WARSAW +       CLOUDY    34  27  75 SW6       29.95F WCI  29

$$

INZ006>009-017-018-025>027-071400-
NORTHEAST INDIANA

CITY           SKY/WX    TMP DP  RH WIND       PRES   REMARKS
AUBURN +       PTCLDY    34  27  75 S5        29.97F WCI  30
FORT WAYNE     CLOUDY    32  26  78 SW9       29.98F WCI  24
HUNTINGTON +   CLOUDY    34  22  61 SW7       29.97F WCI  28

$$

INZ028-029-035-036-043>045-051>053-071400-
WEST CENTRAL INDIANA

CITY           SKY/WX    TMP DP  RH WIND       PRES   REMARKS
GREENCASTLE +  PTCLDY    36  18  48 S7        30.02F
LAFAYETTE      PTCLDY    34  25  69 SW3       29.98F
TERRE HAUTE    CLOUDY    37  23  56 SW9       30.03F

$$

INZ030>032-037>040-046>048-054>057-064-065-071400-
CENTRAL INDIANA

CITY           SKY/WX    TMP DP  RH WIND       PRES   REMARKS
FRANKFORT +    PTCLDY    34  21  59 S8        30.01S WCI  27
GREENWOOD *+   CLEAR     36  25  64 S7        30.04F
INDIANAPOLIS   PTCLDY    33  22  63 S9        30.00F WCI  25
-EAGLE CREEK   CLEAR     34  23  64 S6        30.01F WCI  29
KOKOMO *+        N/A     36  25  64 SW12      29.98F
MARION +       CLEAR     31  19  60 S8        30.00F WCI  24
MT COMFORT *+  CLEAR     32  23  69 S8        30.03F WCI  25
SHELBYVILLE    CLOUDY    35  23  61 S9        30.04F WCI  28
ZIONSVILLE +   PTCLDY    33  24  69 S7        30.01F WCI  27

$$

INZ033-034-041-042-049-050-058-059-071400-
EAST CENTRAL INDIANA

CITY           SKY/WX    TMP DP  RH WIND       PRES   REMARKS
MUNCIE         CLOUDY    36  23  59 SW10      30.00F

$$

INZ060-061-067>069-081>083-085>088-071400-
SOUTHWEST INDIANA

CITY           SKY/WX    TMP DP  RH WIND       PRES   REMARKS
EVANSVILLE     MOCLDY    36  24  62 SW7       30.12F
HUNTINGBURG *+ CLEAR     32  21  64 S8        30.12F WCI  25
WASHINGTON +   CLOUDY    35  23  62 S9        30.07F WCI  28

$$

INZ062-063-066-070>080-084-089>092-071400-
SOUTH CENTRAL AND SOUTHEAST INDIANA

CITY           SKY/WX    TMP DP  RH WIND       PRES   REMARKS
BEDFORD +      PTCLDY    36  23  60 S6        30.08F
BLOOMINGTON    PTCLDY    36  22  56 SW8       30.06F
MADISON *+     CLEAR     30  25  80 S3        30.13F
NORTH VERNON + CLOUDY    32  23  69 CALM      30.10F
SEYMOUR +      PTCLDY    34  21  60 S8        30.10F WCI  27

$$




USA.gov is the U.S. government's official web portal to all federal, state and local government web resources and services.